Location: Kaltenbach
(49.2000°N, 7.7500°E)
Time: 09:12:12
(UTC+00:00)

NOSS 2-1 (D) - Pass Details

Date: 24 January 2020
Orbit: 456 x 1748 km, 63.3° (Epoch: 28 January)

Event Time Altitude Azimuth Distance (km) Brightness Sun altitude
Rises 17:05:25 0° 317° (NW) 3,025 7.4 -8.8°
Reaches altitude 10° 17:07:26 10° 318° (NW) 2,244 6.7 -9.1°
Maximum altitude 17:12:36 90° 243° (WSW) 923 4.4 -9.9°
Drops below altitude 10° 17:19:54 10° 140° (SE) 3,115 6.9 -11.1°
Sets 17:23:07 0° 141° (SE) 4,287 7.6 -11.6°
